Temperature
5 4 4 4 4 4 4 4 3 3 3 3 3 3 3 3 3 3 3 3 3 3 3 3 3 3 3 3 2 2 2 2 2 2 2 2 2 2 2 2 2 2 2
4 4 4 4 4 4 3 3 3 3 3 3 3 2 2 2 2 2 2 2 2 2 2 2 2 2 2 2 2 2 2 1 1 1 2 1 1 1 1 1 1 1 1
4 4 3 3 3 3 3 3 3 2 2 2 2 2 2 2 2 2 2 2 2 2 2 2 2 2 2 2 2 1 1 1 1 1 1 1 1 1 1 1 1 1 1
3 3 3 3 3 3 3 2 2 2 2 2 2 2 2 1 1 1 1 1 1 1 1 1 1 1 1 1 1 1 1 1 0 0 0 0 0 0 0 0 0 0 0
3 3 3 3 2 2 2 2 2 2 2 2 1 1 1 1 1 1 1 1 1 1 1 1 1 1 1 1 1 1 1 0 0 0 -0 -0 -0 -0 -0 -0 -0 -0 -0
2 2 2 2 2 2 2 1 1 1 1 1 1 1 0 0 0 0 0 0 0 1 1 0 0 0 0 0 0 0 0 0 -0 -0 -0 -0 -0 -1 -1 -1 -1 -1 -1
2 2 2 2 1 1 1 1 1 1 1 1 0 0 -0 0 0 0 0 0 0 0 -0 -0 -0 -0 -0 -0 -0 -0 -0 -0 -0 -0 -0 -0 -1 -1 -1 -1 -1 -2 -2
1 1 1 1 1 1 1 1 1 0 0 0 0 -0 -0 -0 -0 -0 -0 -0 -1 -0 -0 -1 -1 -1 -0 -0 -0 -0 -0 -0 -1 -1 -1 -1 -1 -1 -1 -2 -2 -2 -2
1 1 1 1 1 0 0 0 0 0 -0 -0 -0 -1 -1 -1 -1 -1 -1 -1 -1 -1 -1 -1 -1 -1 -1 -1 -1 -1 -1 -1 -1 -1 -1 -1 -1 -1 -2 -2 -2 -2 -3
0 0 0 0 0 -0 -0 -0 -0 -0 -0 -1 -1 -1 -1 -1 -1 -1 -1 -1 -1 -1 -1 -1 -1 -1 -1 -1 -1 -1 -1 -1 -1 -1 -2 -2 -2 -2 -2 -2 -2 -3 -3
-0 -0 -0 -0 -1 -1 -1 -1 -1 -1 -1 -1 -1 -1 -1 -1 -1 -1 -2 -2 -2 -2 -2 -2 -2 -2 -2 -2 -2 -2 -2 -2 -2 -2 -2 -2 -2 -2 -2 -3 -3 -3 -3
-1 -1 -1 -1 -1 -1 -1 -1 -1 -1 -1 -1 -2 -2 -2 -2 -2 -2 -2 -2 -2 -2 -2 -2 -2 -2 -2 -2 -2 -2 -2 -2 -2 -2 -2 -2 -2 -3 -3 -3 -3 -4 -4
-1 -1 -1 -2 -2 -2 -2 -2 -2 -2 -2 -2 -2 -2 -2 -2 -2 -2 -2 -2 -2 -2 -2 -2 -2 -2 -2 -2 -2 -3 -3 -3 -3 -3 -3 -3 -3 -3 -3 -4 -4 -4 -4
-2 -2 -2 -2 -2 -2 -2 -2 -2 -2 -2 -2 -3 -3 -2 -2 -2 -3 -3 -3 -3 -3 -3 -3 -3 -3 -3 -3 -3 -3 -3 -3 -3 -3 -3 -3 -3 -4 -4 -4 -4 -4 -4
-2 -3 -3 -3 -3 -3 -3 -3 -3 -3 -3 -3 -3 -3 -3 -3 -3 -3 -3 -3 -3 -3 -3 -3 -3 -3 -3 -3 -3 -4 -4 -4 -4 -4 -4 -4 -4 -4 -4 -5 -5 -5 -5
-3 -3 -3 -3 -3 -3 -3 -3 -3 -3 -3 -3 -3 -3 -3 -3 -3 -3 -3 -3 -3 -3 -3 -3 -3 -3 -3 -3 -4 -4 -4 -4 -4 -4 -4 -4 -4 -5 -5 -5 -5 -5 -5
-4 -4 -4 -4 -4 -4 -4 -4 -4 -4 -4 -4 -4 -4 -4 -4 -4 -4 -4 -4 -4 -4 -4 -4 -4 -4 -4 -4 -4 -4 -4 -4 -5 -5 -5 -5 -5 -5 -5 -5 -5 -5 -5
-4 -4 -4 -4 -4 -4 -4 -4 -4 -4 -4 -4 -4 -4 -4 -4 -4 -4 -4 -4 -4 -4 -4 -4 -4 -4 -4 -4 -4 -5 -5 -5 -5 -5 -5 -5 -5 -5 -5 -6 -6 -6 -6
-4 -4 -4 -4 -5 -5 -5 -5 -4 -4 -5 -5 -5 -4 -5 -5 -4 -4 -4 -5 -5 -5 -5 -5 -5 -4 -5 -5 -5 -5 -5 -5 -5 -5 -5 -5 -6 -6 -6 -6 -6 -6 -6
-5 -5 -5 -5 -5 -5 -5 -5 -5 -5 -5 -5 -5 -5 -5 -5 -5 -5 -5 -5 -5 -5 -5 -5 -5 -5 -5 -5 -5 -5 -5 -5 -5 -5 -6 -6 -6 -6 -6 -6 -6 -6 -6
-5 -5 -5 -5 -5 -5 -5 -5 -5 -5 -5 -5 -5 -5 -5 -5 -5 -5 -5 -5 -5 -5 -5 -5 -5 -5 -5 -5 -5 -5 -6 -6 -6 -6 -6 -6 -6 -6 -6 -6 -6 -6 -6
-5 -5 -5 -5 -6 -6 -6 -6 -6 -6 -5 -5 -5 -5 -5 -5 -5 -5 -5 -5 -5 -5 -5 -5 -5 -5 -5 -5 -5 -6 -6 -6 -6 -6 -6 -6 -6 -6 -6 -6 -6 -6 -6
-6 -6 -6 -6 -6 -6 -6 -6 -6 -6 -6 -6 -6 -6 -6 -5 -5 -5 -5 -5 -5 -5 -5 -5 -5 -5 -5 -5 -6 -6 -6 -6 -6 -6 -6 -6 -6 -6 -6 -6 -6 -6 -6
-6 -6 -6 -6 -6 -6 -6 -6 -6 -6 -6 -6 -6 -6 -6 -6 -6 -5 -5 -5 -5 -5 -5 -5 -5 -5 -5 -6 -6 -6 -6 -6 -6 -6 -6 -6 -6 -6 -6 -6 -7 -7 -7
-6 -6 -6 -6 -6 -6 -6 -6 -6 -6 -6 -6 -6 -6 -6 -6 -6 -6 -6 -5 -5 -5 -6 -6 -6 -6 -6 -6 -6 -6 -6 -6 -6 -6 -6 -6 -6 -6 -7 -7 -7 -7 -7
-6 -7 -7 -7 -7 -7 -7 -7 -7 -6 -6 -6 -6 -6 -6 -6 -6 -6 -6 -6 -6 -6 -6 -6 -6 -6 -6 -6 -6 -6 -6 -6 -6 -6 -6 -6 -6 -6 -7 -7 -7 -7 -7
Wind_Speed
4 4 4 4 4 4 4 5 4 4 4 5 5 5 4 4 4 4 4 4 4 4 4 4 5 3 3 3 2 2 3 3 5 4 3 3 3 3 5 6 6 6 7
4 4 4 4 3 4 4 4 4 4 4 4 4 5 5 5 5 5 5 5 5 5 5 4 5 3 3 3 3 3 3 3 3 5 3 2 3 3 3 4 5 6 7
3 4 3 3 3 4 4 4 4 4 4 4 4 5 5 5 5 5 5 5 6 6 5 5 5 4 4 4 4 4 3 3 3 3 4 2 2 2 2 3 4 4 5
3 3 3 4 4 4 4 4 4 4 5 5 5 5 5 4 5 5 5 5 5 5 5 5 5 6 6 5 5 5 4 4 3 3 4 3 2 2 1 2 3 2 3
3 3 4 4 3 3 3 3 3 4 4 4 4 4 4 4 5 5 5 5 5 5 5 5 5 6 7 6 5 4 4 4 3 3 4 3 3 2 2 2 3 3 3
3 3 3 3 2 3 4 3 3 3 3 4 4 5 5 4 5 7 5 5 5 5 5 5 5 5 7 8 8 6 5 5 4 4 4 5 5 4 3 2 2 3 4
2 3 2 2 3 3 3 3 4 4 4 4 4 5 5 5 6 7 6 5 5 5 5 5 4 5 5 5 6 7 7 7 7 5 5 6 5 4 3 3 3 3 5
2 2 2 2 3 3 3 3 3 3 4 4 4 4 4 5 6 6 6 4 4 5 5 5 5 5 5 5 5 4 5 5 6 6 5 5 5 4 4 4 3 3 3
2 3 3 3 3 2 3 3 3 3 3 3 4 4 5 5 6 6 5 3 4 4 5 5 5 6 7 5 4 4 4 4 5 6 6 5 6 5 3 1 1 1 3
4 3 3 3 2 3 3 3 3 2 3 3 3 4 4 5 6 6 5 3 4 4 4 4 6 6 6 5 4 4 5 4 2 2 2 3 3 3 3 3 3 2 2
3 3 2 2 2 3 2 2 2 2 1 2 3 3 4 4 5 6 5 3 4 4 4 4 4 7 7 6 5 4 5 3 2 2 2 1 1 2 2 2 2 3 3
2 2 2 2 2 2 1 2 2 1 1 2 2 2 2 2 3 4 5 5 4 4 4 3 4 5 6 6 4 3 3 2 2 2 1 2 2 1 1 1 2 3 4
2 2 2 2 2 1 1 1 1 1 1 1 1 2 2 1 2 4 4 4 4 3 3 5 5 4 3 3 3 3 2 2 2 2 2 2 2 2 1 1 1 2 3
2 2 2 2 2 2 1 1 1 1 1 1 2 2 2 2 2 2 2 2 2 2 2 3 3 3 2 2 2 2 1 2 2 3 2 2 1 1 1 1 1 1 1
2 2 2 2 2 2 1 1 1 1 2 2 2 2 2 3 3 3 2 2 2 2 1 1 1 1 1 1 1 1 1 1 1 2 2 1 1 1 1 1 1 1 1
2 2 2 2 2 1 1 2 2 2 3 3 3 3 3 4 5 4 3 3 3 2 1 1 2 2 2 2 1 1 1 1 2 2 2 2 2 1 1 1 1 1 1
3 3 2 2 2 1 1 1 2 3 3 3 3 4 3 4 4 4 3 3 2 1 1 1 2 2 2 2 2 2 2 2 2 2 2 2 2 1 1 1 1 1 1
3 3 2 2 2 2 2 2 2 2 2 2 3 4 4 3 3 3 3 2 1 1 1 1 2 2 2 2 2 2 2 1 1 2 2 2 2 2 1 1 1 1 1
2 2 2 2 2 2 2 2 2 2 2 2 2 3 3 3 3 3 2 1 2 2 2 2 2 2 2 2 2 2 2 2 2 2 2 2 2 2 2 2 2 2 2
2 3 2 2 2 2 2 2 2 2 2 2 2 2 2 1 1 2 1 2 2 2 2 2 2 2 2 2 2 2 2 2 2 2 2 2 2 2 2 2 2 2 2
2 2 2 2 2 2 2 2 2 2 2 3 3 3 3 2 2 2 2 2 2 3 2 2 2 2 2 2 2 2 3 2 2 2 2 2 2 2 2 2 2 2 1
2 1 1 2 2 2 2 2 2 2 3 3 3 3 4 2 2 2 2 2 2 2 2 2 2 2 2 2 2 2 2 2 2 2 2 2 2 2 2 2 2 1 1
1 1 1 1 1 2 2 2 2 2 3 3 2 2 2 2 2 2 2 2 2 2 2 2 2 2 2 3 3 3 3 3 3 3 3 2 2 2 2 2 2 2 2
1 1 1 1 1 1 2 2 2 2 2 2 2 2 2 2 2 2 2 2 2 2 2 2 2 3 3 3 3 3 3 4 4 4 3 3 3 2 2 2 2 2 2
2 2 2 2 2 2 2 2 2 2 2 2 2 2 2 2 2 2 2 1 1 2 2 2 2 3 3 3 3 3 3 4 4 3 3 3 3 2 2 2 2 2 2
2 2 2 2 2 2 2 2 2 2 2 2 1 1 1 2 2 1 1 1 1 1 2 2 3 3 3 3 3 3 3 3 4 4 3 3 2 2 2 2 2 2 1
Wind_Direction
219 216 216 222 221 211 213 218 218 217 214 218 215 215 215 216 212 212 219 217 225 237 232 227 235 228 222 224 226 226 229 219 248 274 274 283 283 285 308 305 301 298 294
220 214 217 218 214 214 222 225 215 215 219 220 215 213 213 217 216 213 219 221 224 234 232 227 234 230 225 227 223 235 239 227 232 262 279 285 278 276 289 300 309 308 299
221 212 220 221 217 220 226 230 225 220 223 222 213 214 217 220 221 218 217 221 227 233 229 225 230 223 229 231 227 234 245 243 230 240 264 270 274 279 299 303 306 306 306
213 208 222 225 221 220 224 229 230 225 225 219 217 219 220 221 223 221 219 223 228 236 235 230 231 227 229 229 231 231 237 237 234 235 250 261 263 274 276 285 304 299 304
217 220 231 235 229 221 225 233 237 238 236 222 217 223 223 219 221 218 220 224 228 239 240 236 236 238 241 237 237 231 229 230 230 238 250 264 260 265 265 266 284 302 296
235 239 241 233 234 233 233 234 236 246 242 221 217 220 224 229 227 224 223 224 228 235 241 243 245 243 248 249 251 247 238 235 228 229 244 252 258 260 258 255 268 300 297
252 255 246 234 236 241 247 241 235 238 229 219 218 219 227 232 230 229 226 220 227 238 242 246 251 256 254 243 252 251 248 247 237 227 232 241 246 244 238 242 249 269 279
259 259 256 244 248 254 251 258 254 241 227 221 221 224 230 236 233 236 232 224 231 241 243 242 240 247 251 244 234 239 246 248 244 236 231 239 245 241 227 233 234 265 274
270 269 266 253 251 255 258 262 271 245 235 225 221 223 230 238 234 237 238 222 232 245 244 242 241 242 252 248 228 234 251 260 259 251 254 262 269 264 254 199 206 263 289
272 274 272 260 254 258 261 267 279 256 236 224 226 230 233 237 241 243 240 221 229 243 249 247 246 248 253 249 228 224 239 245 234 243 254 272 273 259 256 216 203 230 276
279 280 282 278 271 264 268 275 274 264 245 232 233 242 239 240 246 251 251 233 223 234 244 249 250 253 253 255 243 227 236 236 206 209 214 225 231 229 245 255 236 217 242
288 287 288 289 287 287 273 280 273 249 241 246 244 264 260 243 250 253 255 253 243 234 244 250 252 256 252 254 252 246 239 226 190 188 199 221 229 240 252 284 289 279 263
282 280 292 300 296 288 265 269 279 274 240 249 246 265 282 273 252 262 265 264 263 252 247 255 260 263 258 245 247 239 210 192 186 198 216 225 227 230 237 287 316 312 306
267 276 280 284 297 299 284 267 243 247 245 242 241 249 269 277 267 260 260 264 268 265 259 262 262 266 275 250 243 237 216 214 204 208 217 221 224 210 210 219 258 299 323
264 267 273 271 273 280 281 273 261 259 240 240 240 240 244 261 274 280 269 246 230 229 224 216 193 194 223 226 218 220 213 203 221 208 203 204 209 218 243 236 236 259 279
254 259 257 256 264 263 268 317 333 309 295 281 272 267 275 275 287 285 284 278 277 265 241 204 216 218 223 224 224 221 214 212 214 215 214 214 224 229 245 254 250 241 255
246 251 248 244 246 245 247 256 293 324 317 305 298 293 285 286 290 288 285 284 278 269 240 216 224 221 217 222 223 219 223 225 224 222 225 221 222 231 231 239 252 257 257
251 251 251 246 239 239 242 244 243 263 294 306 311 300 298 298 300 297 288 283 266 274 232 228 237 232 224 222 224 226 227 223 225 228 222 217 212 220 224 226 229 242 264
254 253 252 248 243 243 244 245 245 251 263 283 309 308 302 296 298 298 288 242 224 244 243 240 240 229 223 227 228 230 228 226 233 232 227 225 213 213 221 225 229 232 243
267 265 262 247 244 245 242 242 245 248 254 264 270 279 296 292 278 283 278 252 240 247 244 241 239 229 222 225 225 223 226 224 225 233 233 226 214 210 217 223 226 233 246
281 273 266 249 242 241 243 242 243 245 252 260 267 274 268 244 247 252 252 252 247 243 239 237 235 227 224 228 225 225 227 225 222 223 222 221 214 213 223 222 224 228 233
280 268 252 243 243 244 249 248 249 252 257 262 270 281 280 268 257 255 256 259 262 257 244 233 230 229 221 221 225 220 223 231 230 223 224 225 220 214 212 214 216 221 216
282 273 271 261 251 253 258 255 254 257 262 262 262 267 269 263 258 256 260 261 263 261 258 246 236 244 256 247 238 226 220 225 228 225 224 221 218 218 213 214 216 220 220
271 261 261 266 265 257 255 258 259 263 265 265 265 263 263 265 263 266 270 272 266 266 263 257 248 245 252 255 245 237 239 240 232 226 222 215 216 221 224 220 221 217 215
259 256 255 255 260 265 268 272 274 273 275 278 278 280 279 277 273 269 271 278 274 269 274 273 262 251 246 249 248 243 238 241 233 219 217 208 205 216 217 211 210 208 208
259 258 257 259 262 265 264 267 273 281 280 283 286 288 286 286 285 285 287 291 293 286 286 282 271 264 254 249 243 237 236 230 223 219 209 201 195 204 199 196 194 196 194
Height
1478 1478 1477 1477 1477 1478 1478 1478 1478 1478 1478 1478 1478 1479 1479 1480 1481 1481 1482 1483 1484 1484 1485 1485 1486 1487 1487 1487 1487 1488 1488 1488 1486 1484 1485 1485 1485 1484 1483 1482 1481 1479 1478
1474 1474 1474 1474 1474 1473 1473 1473 1474 1473 1474 1474 1474 1475 1475 1475 1476 1477 1478 1478 1479 1480 1481 1481 1482 1483 1483 1483 1483 1483 1483 1483 1482 1480 1480 1480 1480 1480 1479 1478 1476 1475 1474
1471 1470 1470 1470 1469 1469 1469 1469 1469 1469 1469 1470 1470 1470 1470 1471 1472 1473 1473 1474 1475 1476 1476 1477 1478 1478 1478 1479 1479 1479 1479 1479 1478 1477 1476 1476 1476 1476 1474 1474 1473 1471 1470
1467 1467 1466 1466 1465 1465 1465 1465 1465 1465 1464 1465 1465 1465 1466 1467 1468 1468 1469 1470 1471 1471 1472 1472 1473 1473 1474 1474 1474 1474 1475 1474 1474 1473 1472 1472 1471 1471 1471 1469 1468 1467 1466
1463 1463 1462 1462 1462 1461 1461 1460 1460 1460 1460 1460 1460 1461 1462 1462 1463 1464 1465 1466 1466 1467 1467 1468 1468 1469 1469 1470 1470 1470 1470 1470 1469 1469 1468 1468 1467 1466 1466 1465 1464 1462 1461
1460 1459 1459 1458 1458 1457 1457 1456 1456 1456 1455 1456 1456 1457 1457 1458 1459 1460 1461 1461 1462 1462 1462 1463 1463 1464 1464 1465 1465 1465 1466 1466 1465 1465 1464 1464 1462 1462 1461 1461 1460 1458 1457
1456 1456 1455 1454 1453 1453 1452 1452 1451 1451 1451 1451 1452 1452 1453 1454 1455 1455 1456 1457 1457 1457 1458 1458 1459 1459 1460 1460 1460 1460 1461 1461 1461 1461 1460 1459 1458 1458 1457 1456 1456 1455 1453
1453 1452 1451 1450 1449 1449 1448 1448 1447 1447 1447 1447 1447 1448 1449 1449 1450 1451 1452 1452 1453 1453 1453 1454 1454 1454 1455 1455 1455 1455 1456 1456 1456 1456 1456 1455 1454 1454 1453 1453 1451 1451 1450
1449 1449 1448 1447 1446 1445 1444 1444 1443 1443 1443 1443 1443 1444 1444 1445 1446 1447 1448 1448 1448 1448 1449 1449 1449 1450 1450 1451 1451 1450 1450 1451 1451 1451 1451 1451 1450 1450 1449 1448 1447 1447 1445
1446 1445 1445 1444 1443 1442 1441 1440 1440 1439 1439 1439 1440 1440 1441 1441 1442 1443 1444 1444 1444 1444 1444 1444 1445 1445 1446 1446 1446 1445 1445 1446 1446 1446 1446 1446 1445 1445 1445 1444 1443 1443 1442
1443 1441 1441 1440 1439 1439 1438 1437 1437 1436 1436 1436 1436 1436 1437 1438 1438 1439 1439 1440 1440 1439 1439 1440 1440 1440 1441 1441 1441 1441 1441 1442 1441 1441 1441 1441 1441 1441 1441 1440 1440 1440 1439
1439 1438 1438 1437 1437 1436 1435 1434 1434 1433 1433 1433 1433 1433 1433 1434 1434 1435 1435 1436 1436 1436 1435 1435 1435 1436 1436 1436 1437 1437 1437 1438 1437 1437 1437 1437 1437 1437 1437 1437 1437 1436 1436
1436 1435 1435 1434 1434 1433 1432 1432 1431 1431 1430 1430 1430 1430 1430 1430 1431 1431 1431 1432 1432 1432 1431 1431 1431 1431 1432 1432 1433 1433 1433 1433 1433 1433 1433 1433 1433 1433 1433 1433 1433 1433 1432
1433 1432 1432 1431 1431 1430 1430 1429 1429 1428 1428 1428 1428 1428 1428 1428 1428 1428 1428 1428 1428 1428 1427 1427 1427 1428 1428 1429 1429 1429 1429 1429 1429 1429 1429 1429 1429 1430 1429 1429 1429 1429 1428
1430 1430 1429 1428 1428 1427 1427 1427 1427 1427 1427 1427 1426 1426 1426 1425 1426 1426 1425 1425 1424 1424 1424 1424 1424 1424 1425 1425 1425 1425 1426 1426 1426 1426 1426 1426 1426 1426 1426 1427 1427 1426 1425
1427 1426 1426 1426 1425 1425 1425 1425 1425 1425 1425 1424 1424 1424 1424 1424 1424 1423 1423 1422 1422 1421 1421 1421 1421 1421 1421 1421 1422 1422 1422 1422 1422 1423 1423 1423 1423 1423 1423 1424 1424 1424 1423
1425 1424 1424 1423 1423 1423 1423 1423 1422 1422 1422 1422 1422 1422 1422 1421 1421 1421 1420 1420 1419 1419 1418 1418 1418 1418 1418 1419 1419 1419 1419 1420 1420 1420 1420 1420 1420 1421 1421 1421 1421 1421 1420
1422 1422 1421 1421 1421 1421 1421 1421 1420 1420 1420 1419 1420 1420 1419 1419 1419 1418 1418 1418 1417 1416 1416 1416 1416 1416 1416 1416 1416 1417 1417 1417 1417 1417 1418 1418 1418 1418 1419 1419 1419 1419 1418
1419 1419 1419 1419 1419 1419 1419 1419 1418 1418 1418 1417 1417 1417 1417 1417 1417 1416 1416 1415 1414 1414 1414 1414 1414 1414 1414 1414 1414 1414 1415 1415 1415 1415 1415 1415 1416 1416 1416 1417 1417 1417 1416
1417 1417 1417 1417 1416 1416 1416 1416 1416 1416 1415 1415 1415 1415 1415 1415 1414 1414 1413 1413 1412 1412 1412 1412 1412 1412 1412 1412 1412 1412 1412 1412 1412 1413 1413 1413 1413 1414 1414 1415 1415 1415 1414
1415 1415 1414 1414 1414 1414 1414 1414 1413 1413 1413 1413 1413 1413 1413 1412 1412 1411 1411 1411 1410 1410 1410 1410 1409 1409 1409 1410 1409 1410 1410 1410 1410 1410 1410 1411 1411 1412 1412 1413 1413 1413 1413
1413 1413 1412 1412 1412 1412 1411 1411 1411 1411 1411 1411 1410 1410 1410 1410 1409 1409 1409 1409 1408 1408 1408 1407 1407 1407 1407 1407 1407 1407 1407 1407 1408 1408 1408 1409 1409 1410 1410 1411 1411 1411 1411
1411 1410 1410 1410 1410 1409 1409 1409 1409 1409 1409 1408 1408 1408 1408 1407 1407 1407 1407 1406 1406 1406 1405 1405 1405 1405 1405 1405 1405 1405 1406 1406 1406 1406 1406 1407 1407 1408 1408 1408 1409 1409 1409
1409 1408 1408 1408 1407 1407 1407 1407 1407 1407 1407 1406 1406 1406 1405 1405 1405 1404 1404 1404 1404 1403 1403 1403 1403 1403 1403 1403 1403 1403 1404 1404 1404 1404 1405 1405 1405 1406 1406 1407 1407 1407 1407
1407 1406 1406 1406 1405 1405 1405 1405 1405 1405 1405 1404 1404 1403 1403 1403 1402 1402 1402 1402 1401 1401 1401 1401 1401 1401 1401 1401 1401 1401 1402 1402 1402 1402 1403 1403 1403 1404 1404 1405 1405 1405 1406
1405 1404 1404 1404 1403 1403 1403 1403 1403 1403 1403 1402 1402 1402 1401 1401 1400 1400 1400 1400 1399 1399 1399 1399 1398 1399 1399 1399 1399 1400 1400 1400 1400 1401 1401 1401 1402 1402 1403 1403 1403 1404 1404